星链-34905 (STARLINK-34905)

导读

STARLINK-34905是美国SpaceX公司星链星座中的一颗低轨通信卫星,于2025年8月14日发射入轨。它属于全球覆盖的宽带互联网卫星星座,采用平板设计,搭载Ku/Ka波段通信载荷与氪工质霍尔推进器,具备自主避撞能力,使用寿命约5-7年,退役后将主动离轨在大气层烧毁,旨在为全球提供高速宽带互联网服务。

Basic Information
目录编号:
65202
目录名称:
STARLINK-34905
国际标识:
2025-176E
轨道中心:
EARTH
卫星名称:
星链-34905
卫星全名:
星链-34905 (STARLINK-34905)
卫星状态:
在轨 (已飞行395 天)
发射日期:
2025-08-14 UTC
国别 :
美国 (US)
星等 :
--
This satellite is enrolled in the Space Conjunction Data Service (SCDS) and the current flight risk assessment level is: High Risk
Orbit Information
数据来源 国际轨道数据
星历时间: 2026-09-12T22:21:20+0800
14小时前
查看轨道信息
半长轴: 6840.793km
偏心率: 0.0001312
轨道倾角: 53.160°
近地点辐角 75.244°
升交点赤经 0.542°
平近点角 284.871°
近地点: 461.758km
远地点: 463.554km
周期: 93.847分钟
每日圈数: 15.344159
Detailed Information
固有亮度:
5
最大亮度:
2.5
卫星平台:
Starlink V1.0
覆盖范围:
全球
运营商:
太空探索技术公司
运营商所在国:
美国
制造商(研发单位):
太空探索技术公司
制造商所在国:
美国
使用方式:
暂无
Satellite Introduction
Starlink 计划是 SpaceX 推出的全球卫星互联网项目,通过发射低轨道卫星,为全球尤其是偏远地区提供高速、低延迟的互联网服务。自 2019 年起,Starlink 已部署数千颗卫星,旨在缩小全球数字鸿沟,推动互联网普及。该项目还为军事、航空等行业提供通信支持,带来广泛经济效益。
2D Orbit Map
3D Orbit Map
Orbit Altitude Analysis Chart
Orbit Inclination Analysis Chart
Orbit Comprehensive Analysis Chart
View Comprehensive Chart
Conjunction Data List
Event ID Objects TCA Miss Dist (km) Collision Risk Probability Collision Risk Index (CRI) Action
CDM_260914-190006-002906-520221
2026-09-14T
19:00:21+0000
0.325 km
远距离
3.286014E-4 高风险 0.85
CDM_260914-154804-740706-520221
2026-09-14T
15:48:18+0000
1.652 km
极远距离
3.830061E-6 低风险 0.47
CDM_260915-015704-740706-520221
2026-09-15T
01:57:57+0000
2.475 km
极远距离
1.428189E-6 低风险 0.38
CDM_260915-002404-740706-520221
2026-09-15T
00:24:09+0000
2.896 km
极远距离
1.126671E-6 低风险 0.36
CDM_260914-223305-917506-520221
EXO-0 (59175)
2026-09-14T
22:33:38+0000
2.433 km
极远距离
1.075784E-6 低风险 0.36
CDM_260913-061405-198406-520221
2026-09-13T
06:14:50+0000
2.975 km
极远距离
9.876278E-7 极低风险 0.35
CDM_260914-203406-002906-520221
2026-09-14T
20:34:09+0000
2.908 km
极远距离
9.366573E-7 极低风险 0.34
CDM_260915-000705-917506-520221
EXO-0 (59175)
2026-09-15T
00:07:33+0000
2.960 km
极远距离
8.117565E-7 极低风险 0.33
CDM_260913-110305-258406-520221
2026-09-13T
11:03:34+0000
2.357 km
极远距离
4.197503E-7 极低风险 0.27
CDM_260914-234805-270806-520221
2026-09-14T
23:48:15+0000
2.955 km
极远距离
2.610965E-7 极低风险 0.23
Miss Distance Evolution Trend with All Objects
Collision Probability Evolution Trend with All Objects